When you browse on this site, cookies collect data to enhance your experience and personalize the content and advertising you see.
Visit our Privacy Policy to learn more. By continuing to use the site, you agree to this use of cookies and data.
  • en France
  • Liste des pays
  • À 7 jours
  • Température de l'eau
  • Carte météo
  • Widgets météo
  • user-avatar
    Se connecter

    Météo par heure à Heidelberg

    Ce jour, 19 Septembre, Jeudi

    Heure Température Précipitation Vent Pression Humidité
    00:00 +9°C° 0 mm 2 m/s 740 mmHg 65%
    01:00 +9°C° 0 mm 2 m/s 741 mmHg 64%
    02:00 +8°C° 0 mm 2 m/s 740 mmHg 66%
    03:00 +8°C° 0 mm 2 m/s 740 mmHg 67%
    04:00 +8°C° 0 mm 2 m/s 740 mmHg 69%
    05:00 +8°C° 0 mm 2 m/s 740 mmHg 71%
    06:00 +8°C° 0 mm 2 m/s 741 mmHg 73%
    07:00 +8°C° 0 mm 2 m/s 741 mmHg 75%
    08:00 +9°C° 0 mm 2 m/s 741 mmHg 68%
    09:00 +11°C° 0 mm 3 m/s 742 mmHg 60%
    10:00 +13°C° 0 mm 3 m/s 742 mmHg 52%
    11:00 +14°C° 0 mm 3 m/s 742 mmHg 48%
    12:00 +16°C° 0 mm 3 m/s 741 mmHg 43%
    13:00 +16°C° 0 mm 3 m/s 742 mmHg 39%
    14:00 +16°C° 0 mm 3 m/s 742 mmHg 39%
    15:00 +16°C° 0 mm 3 m/s 741 mmHg 39%
    16:00 +16°C° 0 mm 3 m/s 741 mmHg 39%
    17:00 +14°C° 0 mm 3 m/s 741 mmHg 45%
    18:00 +12°C° 0 mm 3 m/s 741 mmHg 50%
    19:00 +12°C° 0 mm 2 m/s 741 mmHg 56%
    20:00 +10°C° 0 mm 2 m/s 742 mmHg 58%
    21:00 +9°C° 0 mm 2 m/s 742 mmHg 61%
    22:00 +8°C° 0 mm 2 m/s 742 mmHg 64%
    23:00 +8°C° 0 mm 2 m/s 742 mmHg 66%

    Demain, 20 Septembre, Vendredi

    Heure Température Précipitation Vent Pression Humidité
    00:00 +8°C° 0 mm 2 m/s 742 mmHg 67%
    01:00 +7°C° 0 mm 2 m/s 742 mmHg 69%
    02:00 +7°C° 0 mm 2 m/s 742 mmHg 71%
    03:00 +7°C° 0 mm 2 m/s 741 mmHg 73%
    04:00 +6°C° 0 mm 2 m/s 741 mmHg 75%
    05:00 +6°C° 0 mm 2 m/s 741 mmHg 75%
    06:00 +6°C° 0 mm 2 m/s 741 mmHg 76%
    07:00 +6°C° 0 mm 2 m/s 741 mmHg 77%
    08:00 +8°C° 0 mm 2 m/s 741 mmHg 69%
    09:00 +10°C° 0 mm 3 m/s 741 mmHg 61%
    10:00 +12°C° 0 mm 3 m/s 741 mmHg 53%
    11:00 +14°C° 0 mm 3 m/s 741 mmHg 48%
    12:00 +16°C° 0 mm 3 m/s 740 mmHg 44%
    13:00 +17°C° 0 mm 3 m/s 740 mmHg 40%
    14:00 +18°C° 0 mm 4 m/s 740 mmHg 40%
    15:00 +18°C° 0 mm 4 m/s 739 mmHg 41%
    16:00 +18°C° 0 mm 4 m/s 739 mmHg 41%
    17:00 +16°C° 0 mm 3 m/s 739 mmHg 47%
    18:00 +13°C° 0 mm 3 m/s 739 mmHg 53%
    19:00 +12°C° 0 mm 3 m/s 738 mmHg 59%
    20:00 +11°C° 0 mm 3 m/s 738 mmHg 60%
    21:00 +12°C° 0 mm 2 m/s 738 mmHg 61%
    22:00 +10°C° 0 mm 2 m/s 738 mmHg 63%
    23:00 +10°C° 0 mm 2 m/s 738 mmHg 64%

    Après-demain, 21 Septembre, Samedi

    Heure Température Précipitation Vent Pression Humidité
    00:00 +9°C° 0 mm 2 m/s 738 mmHg 65%
    01:00 +9°C° 0 mm 2 m/s 737 mmHg 66%
    02:00 +8°C° 0 mm 2 m/s 737 mmHg 67%
    03:00 +8°C° 0 mm 2 m/s 737 mmHg 68%
    04:00 +8°C° 0 mm 2 m/s 736 mmHg 69%
    05:00 +8°C° 0 mm 2 m/s 736 mmHg 68%
    06:00 +8°C° 0 mm 2 m/s 736 mmHg 68%
    07:00 +8°C° 0 mm 2 m/s 736 mmHg 68%
    08:00 +10°C° 0 mm 3 m/s 736 mmHg 60%
    09:00 +12°C° 0 mm 3 m/s 736 mmHg 52%
    10:00 +14°C° 0 mm 3 m/s 736 mmHg 44%
    11:00 +17°C° 0 mm 3 m/s 735 mmHg 42%
    12:00 +18°C° 0 mm 3 m/s 735 mmHg 40%
    13:00 +20°C° 0 mm 3 m/s 735 mmHg 37%
    14:00 +20°C° 0 mm 4 m/s 734 mmHg 39%
    15:00 +21°C° 0 mm 4 m/s 734 mmHg 40%
    16:00 +21°C° 0 mm 4 m/s 733 mmHg 42%
    17:00 +19°C° 0 mm 3 m/s 733 mmHg 49%
    18:00 +17°C° 0 mm 3 m/s 732 mmHg 56%
    19:00 +14°C° 0 mm 3 m/s 732 mmHg 63%
    20:00 +14°C° 0 mm 3 m/s 732 mmHg 66%
    21:00 +13°C° 0 mm 3 m/s 732 mmHg 69%
    22:00 +13°C° 0 mm 2 m/s 732 mmHg 73%
    23:00 +12°C° 0 mm 2 m/s 731 mmHg 75%

    22 Septembre, Dimanche

    Heure Température Précipitation Vent Pression Humidité
    00:00 +12°C° 0 mm 2 m/s 731 mmHg 77%
    01:00 +10°C° 0 mm 2 m/s 731 mmHg 79%
    02:00 +11°C° 0 mm 1 m/s 731 mmHg 79%
    03:00 +11°C° 0 mm 1 m/s 730 mmHg 80%
    04:00 +10°C° 0 mm 1 m/s 730 mmHg 80%
    05:00 +11°C° 0 mm 1 m/s 730 mmHg 79%
    06:00 +11°C° 0 mm 1 m/s 730 mmHg 78%
    07:00 +11°C° 0 mm 1 m/s 730 mmHg 76%
    08:00 +13°C° 0 mm 1 m/s 730 mmHg 71%
    09:00 +15°C° 0 mm 1 m/s 730 mmHg 65%
    10:00 +16°C° 0 mm 1 m/s 730 mmHg 59%
    11:00 +18°C° 0 mm 1 m/s 730 mmHg 58%
    12:00 +19°C° 0 mm 1 m/s 730 mmHg 56%
    13:00 +20°C° 0 mm 1 m/s 729 mmHg 54%
    14:00 +20°C° 0 mm 1 m/s 729 mmHg 56%
    15:00 +20°C° 0 mm 1 m/s 728 mmHg 58%
    16:00 +20°C° 0 mm 1 m/s 728 mmHg 60%
    17:00 +19°C° 0 mm 1 m/s 727 mmHg 63%
    18:00 +18°C° 0 mm 1 m/s 727 mmHg 67%
    19:00 +16°C° 0 mm 1 m/s 727 mmHg 70%
    20:00 +16°C° 0 mm 1 m/s 726 mmHg 73%
    21:00 +15°C° 0 mm 1 m/s 726 mmHg 75%
    22:00 +15°C° 0 mm 1 m/s 726 mmHg 77%
    23:00 +15°C° 0.1 mm 1 m/s 727 mmHg 77%

    23 Septembre, Lundi

    Heure Température Précipitation Vent Pression Humidité
    00:00 +15°C° 0.1 mm 1 m/s 727 mmHg 77%
    01:00 +15°C° 0.1 mm 1 m/s 728 mmHg 76%
    02:00 +14°C° 0.6 mm 3 m/s 728 mmHg 80%
    03:00 +14°C° 0.6 mm 5 m/s 728 mmHg 83%
    04:00 +13°C° 0.6 mm 6 m/s 729 mmHg 87%
    05:00 +13°C° 1 mm 6 m/s 729 mmHg 88%
    06:00 +13°C° 1 mm 5 m/s 729 mmHg 90%
    07:00 +13°C° 1 mm 5 m/s 730 mmHg 91%
    08:00 +13°C° 1.3 mm 4 m/s 730 mmHg 91%
    09:00 +13°C° 1.3 mm 4 m/s 730 mmHg 91%
    10:00 +13°C° 1.3 mm 3 m/s 731 mmHg 92%
    11:00 +13°C° 0.5 mm 3 m/s 731 mmHg 89%
    12:00 +14°C° 0.5 mm 3 m/s 731 mmHg 86%
    13:00 +14°C° 0.5 mm 3 m/s 731 mmHg 84%
    14:00 +14°C° 0.2 mm 3 m/s 731 mmHg 82%
    15:00 +16°C° 0.2 mm 3 m/s 731 mmHg 80%
    16:00 +16°C° 0.2 mm 3 m/s 731 mmHg 77%
    17:00 +14°C° 0.1 mm 3 m/s 731 mmHg 80%
    18:00 +15°C° 0.1 mm 2 m/s 732 mmHg 82%
    19:00 +14°C° 0.1 mm 2 m/s 732 mmHg 84%
    20:00 +14°C° 0 mm 2 m/s 732 mmHg 85%
    21:00 +13°C° 0 mm 2 m/s 733 mmHg 86%
    22:00 +13°C° 0 mm 2 m/s 733 mmHg 87%
    23:00 +13°C° 0 mm 2 m/s 733 mmHg 87%

    24 Septembre, Mardi

    Heure Température Précipitation Vent Pression Humidité
    00:00 +12°C° 0 mm 2 m/s 733 mmHg 88%
    01:00 +12°C° 0 mm 2 m/s 733 mmHg 89%
    02:00 +12°C° 0 mm 1 m/s 733 mmHg 89%
    03:00 +11°C° 0 mm 1 m/s 733 mmHg 90%
    04:00 +11°C° 0 mm 1 m/s 733 mmHg 90%
    05:00 +11°C° 0 mm 1 m/s 733 mmHg 90%
    06:00 +11°C° 0 mm 1 m/s 733 mmHg 90%
    07:00 +11°C° 0 mm 1 m/s 733 mmHg 90%
    08:00 +13°C° 0 mm 1 m/s 732 mmHg 83%
    09:00 +14°C° 0 mm 1 m/s 732 mmHg 77%
    10:00 +16°C° 0 mm 2 m/s 732 mmHg 70%
    11:00 +17°C° 0 mm 2 m/s 732 mmHg 64%
    12:00 +18°C° 0 mm 2 m/s 731 mmHg 58%
    13:00 +20°C° 0 mm 2 m/s 731 mmHg 51%
    14:00 +20°C° 0 mm 2 m/s 731 mmHg 52%
    15:00 +19°C° 0 mm 2 m/s 730 mmHg 53%
    16:00 +19°C° 0 mm 2 m/s 730 mmHg 53%
    17:00 +18°C° 0.1 mm 2 m/s 730 mmHg 60%
    18:00 +17°C° 0.1 mm 2 m/s 730 mmHg 67%
    19:00 +15°C° 0.1 mm 2 m/s 730 mmHg 74%
    20:00 +15°C° 0 mm 2 m/s 730 mmHg 75%
    21:00 +14°C° 0 mm 3 m/s 729 mmHg 77%
    22:00 +14°C° 0 mm 3 m/s 729 mmHg 78%
    23:00 +13°C° 0.3 mm 3 m/s 729 mmHg 80%
    Voir plus